Retour au catalogue

STARLINK-32391

ActifCommunicationsVLEO
NORAD 61855·PAYLOAD·🇺🇸 United States

Lancé Nov 7, 2024 depuis Cape Canaveral Space Force Station

Loading…

Prochains Passages (prochaines 24 heures)

TLE

FraisSource: CelesTrak SupGP

Époque: Sep 15, 2026, 02:29 UTC

1 61855C 24202L   26258.10395833 -.00022869  00000+0 -82847-3 0  2588
2 61855  42.9993 248.1053 0001149 263.8215 256.0484 15.27584370    10

Suivez STARLINK-32391 en temps réel avec AllMySat

Download on the App Store